Location: Appeville
(49.3218°N, 1.3427°W)
Time: 15:37:40
(UTC+00:00)

COSMO-SKYMED 1 - Pass Details

Date: 08 December 2019
Orbit: 621 x 623 km, 97.9° (Epoch: 27 January)

Event Time Altitude Azimuth Distance (km) Brightness Sun altitude
Rises 06:44:08 0° 220° (SW) 2,896 5.8 -9.8°
Reaches altitude 10° 06:47:52 10° 253° (WSW) 1,997 4.7 -9.2°
Maximum altitude 06:49:20 12° 273° (W) 1,900 4.5 -9.0°
Enters shadow 06:50:08 11° 285° (WNW) 1,932 4.4 -8.9°
